{"data":{"norad_id":67177,"intl_designator":"2025-303Q","name":"STARLINK-35853","alt_names":[],"object_type":"PAYLOAD","status":"ACTIVE","operator":null,"country":"US","launch_date":"2025-12-17","launch_site_code":"AFETR","launch_vehicle":null,"mission":null,"orbit_class":"UNKNOWN","rcs_meters":null,"size_class":null,"mass_kg":null,"dimensions":null,"purposes":["comms"],"wikipedia_slug":null,"has_3d_model":false,"image_url":null,"decayed_at":null,"tle_current":{"epoch":"2026-05-24T23:46:58.071360Z","epoch_age_seconds":82779,"freshness":"FRESH","line1":"1 67177U 25303Q   26144.99094990  .00013534  00000+0  50024-3 0  9996","line2":"2 67177  43.0011 239.8711 0002227 273.5337  86.5260 15.27591181 24400","mean_motion":15.27591181,"eccentricity":0.0002227,"inclination_deg":43.0011,"raan_deg":239.8711,"arg_perigee_deg":273.5337,"mean_anomaly_deg":86.526,"bstar":0.00050024,"rev_number":2440,"period_min":94.266058740752,"perigee_km":481.48763761987,"apogee_km":484.54359499517,"semimajor_km":6861.1526163075,"source":"CELESTRAK","updated_at":"2026-05-25T13:38:21.482689Z"}}}